sat.trackr.live / text

‹ back to catalog

ONEWEB-0355

NORAD 49218 · 2021-083AJ

PAYLOAD ACTIVE UNKNOWN

§ Identity

Operator
Country
UK
Launch date
2021-09-14
Launch site
TYMSC
Launch vehicle
Mass (kg)
RCS (m²)

Purposes: comms

External: N2YO · Heavens-Above · Gunter

§ Orbital elements

Epoch: 2026-09-12T21:17:54.780576Z

Period
109.63 min
Inclination
87.8923°
Eccentricity
0.0001753
Mean motion
13.13468877 rev/d
Perigee alt
1,208.4 km
Apogee alt
1,211.1 km
Semi-major
7,587.9 km
B*
5.6042e-4
RAAN
302.7851°
Arg perigee
92.9128°
Mean anomaly
267.2202°
Rev number
24,241

§ Raw data

ONEWEB-03551 49218U 21083AJ  26255.88743959  .00000217  00000+0  56042-3 0  99902 49218  87.8923 302.7851 0001753  92.9128 267.2202 13.13468877242418

JSON: /api/v1/satellites/49218 · /tle

For live sub-satellite position, see the globe view (requires WebGL).

§ Visibility from observer

Set your observer location to see the next 7 days of passes ≥ 10°. The values pass through the URL so the page stays shareable.

No JS? Fill the form by hand. The geolocation button needs JavaScript.